Погода в Степной Репьевке

Россия / Ульяновская область     54°30′32″N   47°55′26″E
темп.,
°C
ветер,
м/с
пор.,
м/с
влажн.,
%
обл.,
%
осадки,
мм/ч
давл.,
гПа
погр.,
м
10 апреля, сб
сб1001:000ссв2597100 0.0 1027169
04:000ссв3896100 0.0 1028246
07:000ссв41198100 0.2 1029375
10:00+1св512100100 1.3 1028391
13:00+1ссв510100100 1.3 1027314
16:00+2ссв48100100 2.4 1026302
19:00+2св26100100 1.9 1026235
22:00+1с24100100 2.3 1025109
11 апреля, вс
вс1101:00+1с24100100 6.6 102496
04:00+1с4899100 7.3 1025184
07:00+2с37100100 0.0 1026177
10:00+2с48100100 0.3 1028219
13:00+4с4899100 0.0 1030249
16:00+4ссв3698100 0.0 1031216
19:00+4ссв4899100 0.7 1032212
22:00+4св3799100 1.1 1033195
12 апреля, пн
пн1201:00+4св3799100 0.2 1033164
04:00+4св3899100 0.5 1034168
07:00+4ссв4799100 0.6 1034191
10:00+6св599699 0.8 1034240
13:00+10в468593 0.0 1034334
16:00+14всв457274 0.0 1033402
19:00+11всв248567 0.0 1033101
22:00+8в228984 0.0 103324
13 апреля, вт
вт1301:00+7вюв228838 0.0 103314
04:00+7юв228539 0.0 103314
07:00+6юв228964 0.0 103225
10:00+12ююв356858 0.0 1032269
13:00+16ююв564296 0.0 1031834
16:00+17ююв56375 0.0 10301088
19:00+14юв34545 0.0 102980
22:00+10ююв33635 0.0 102939
14 апреля, ср
ср1401:00+9ю33703 0.0 102940
04:00+7ююз33761 0.0 102830
07:00+7ю22776 0.0 102824
10:00+12ю3559100 0.0 1027266
13:00+17ююв454374 0.0 1026830
16:00+18ююв453517 0.0 10241187
19:00+15ююв33495 0.0 102338
22:00+11ю335810 0.0 102326